• In Uzbekistan
  • List of Countries
  • For 7 days
  • Water Temperature
  • Satellite Maps
  • Weather Map
  • Weather Widgets
  • user-avatar
    Login

    Hourly Weather Carapicuiba

    Today, 17 December, Sunday

    Time Temperature Precipitation Wind Pressure Humidity
    00:00 +23°C° 0 mm 2 mps 696 mmHg 77%
    01:00 +23°C° 0 mm 2 mps 696 mmHg 77%
    02:00 +23°C° 0 mm 2 mps 696 mmHg 77%
    03:00 +23°C° 0 mm 2 mps 695 mmHg 78%
    04:00 +23°C° 0 mm 2 mps 695 mmHg 77%
    05:00 +23°C° 0 mm 2 mps 696 mmHg 77%
    06:00 +23°C° 0 mm 2 mps 696 mmHg 76%
    07:00 +25°C° 0 mm 3 mps 696 mmHg 69%
    08:00 +27°C° 0 mm 3 mps 697 mmHg 61%
    09:00 +29°C° 0 mm 4 mps 698 mmHg 54%
    10:00 +30°C° 0 mm 4 mps 698 mmHg 50%
    11:00 +33°C° 0 mm 3 mps 698 mmHg 46%
    12:00 +34°C° 0 mm 3 mps 698 mmHg 42%
    13:00 +34°C° 0 mm 3 mps 698 mmHg 42%
    14:00 +34°C° 0 mm 3 mps 698 mmHg 42%
    15:00 +34°C° 0 mm 2 mps 697 mmHg 42%
    16:00 +32°C° 0 mm 2 mps 697 mmHg 46%
    17:00 +31°C° 0 mm 2 mps 697 mmHg 50%
    18:00 +30°C° 0 mm 1 mps 697 mmHg 55%
    19:00 +28°C° 0.6 mm 1 mps 697 mmHg 61%
    20:00 +27°C° 0.6 mm 1 mps 697 mmHg 68%
    21:00 +25°C° 0.6 mm 1 mps 697 mmHg 75%
    22:00 +25°C° 0 mm 1 mps 697 mmHg 76%
    23:00 +24°C° 0 mm 1 mps 697 mmHg 77%

    Tomorrow, 18 December, Monday

    Time Temperature Precipitation Wind Pressure Humidity
    00:00 +24°C° 0 mm 2 mps 697 mmHg 79%
    01:00 +24°C° 0 mm 2 mps 697 mmHg 79%
    02:00 +24°C° 0 mm 2 mps 696 mmHg 79%
    03:00 +23°C° 0 mm 2 mps 696 mmHg 79%
    04:00 +23°C° 0 mm 2 mps 696 mmHg 79%
    05:00 +23°C° 0 mm 2 mps 697 mmHg 79%
    06:00 +23°C° 0 mm 2 mps 697 mmHg 79%
    07:00 +25°C° 0.1 mm 2 mps 698 mmHg 71%
    08:00 +27°C° 0.1 mm 3 mps 699 mmHg 64%
    09:00 +29°C° 0.1 mm 3 mps 699 mmHg 56%
    10:00 +30°C° 0.3 mm 3 mps 700 mmHg 55%
    11:00 +30°C° 0.3 mm 2 mps 700 mmHg 53%
    12:00 +31°C° 0.3 mm 2 mps 700 mmHg 52%
    13:00 +30°C° 0.6 mm 2 mps 699 mmHg 57%
    14:00 +29°C° 0.6 mm 2 mps 699 mmHg 61%
    15:00 +29°C° 0.6 mm 2 mps 698 mmHg 66%
    16:00 +27°C° 1.1 mm 2 mps 698 mmHg 72%
    17:00 +26°C° 1.1 mm 2 mps 698 mmHg 78%
    18:00 +25°C° 1.1 mm 3 mps 698 mmHg 84%
    19:00 +24°C° 0.9 mm 3 mps 698 mmHg 86%
    20:00 +24°C° 0.9 mm 3 mps 699 mmHg 87%
    21:00 +22°C° 0.9 mm 3 mps 699 mmHg 89%
    22:00 +22°C° 0.9 mm 3 mps 699 mmHg 89%
    23:00 +22°C° 0.9 mm 3 mps 699 mmHg 90%

    Day after tomorrow, 19 December, Tuesday

    Time Temperature Precipitation Wind Pressure Humidity
    00:00 +22°C° 0.9 mm 3 mps 699 mmHg 90%
    01:00 +21°C° 0 mm 2 mps 699 mmHg 91%
    02:00 +21°C° 0 mm 2 mps 699 mmHg 91%
    03:00 +21°C° 0 mm 2 mps 698 mmHg 92%
    04:00 +21°C° 0 mm 2 mps 699 mmHg 91%
    05:00 +21°C° 0 mm 2 mps 699 mmHg 91%
    06:00 +21°C° 0 mm 2 mps 699 mmHg 91%
    07:00 +23°C° 0.1 mm 2 mps 700 mmHg 86%
    08:00 +24°C° 0.1 mm 2 mps 700 mmHg 81%
    09:00 +25°C° 0.1 mm 2 mps 700 mmHg 77%
    10:00 +27°C° 0.1 mm 2 mps 700 mmHg 71%
    11:00 +28°C° 0.1 mm 2 mps 700 mmHg 66%
    12:00 +29°C° 0.1 mm 2 mps 700 mmHg 61%
    13:00 +29°C° 0.2 mm 2 mps 699 mmHg 62%
    14:00 +29°C° 0.2 mm 2 mps 699 mmHg 64%
    15:00 +29°C° 0.2 mm 2 mps 698 mmHg 65%
    16:00 +27°C° 0.5 mm 3 mps 698 mmHg 71%
    17:00 +26°C° 0.5 mm 3 mps 698 mmHg 76%
    18:00 +25°C° 0.5 mm 3 mps 698 mmHg 81%
    19:00 +24°C° 0.1 mm 3 mps 698 mmHg 84%
    20:00 +22°C° 0.1 mm 3 mps 698 mmHg 86%
    21:00 +22°C° 0.1 mm 3 mps 698 mmHg 89%
    22:00 +21°C° 0.1 mm 3 mps 698 mmHg 89%
    23:00 +21°C° 0.1 mm 2 mps 698 mmHg 90%

    20 December, Wednesday

    Time Temperature Precipitation Wind Pressure Humidity
    00:00 +21°C° 0.1 mm 2 mps 698 mmHg 90%
    01:00 +21°C° 0 mm 2 mps 697 mmHg 90%
    02:00 +21°C° 0 mm 2 mps 697 mmHg 90%
    03:00 +21°C° 0 mm 2 mps 697 mmHg 90%
    04:00 +21°C° 0.1 mm 2 mps 697 mmHg 90%
    05:00 +22°C° 0.1 mm 1 mps 697 mmHg 89%
    06:00 +22°C° 0.1 mm 1 mps 697 mmHg 89%
    07:00 +24°C° 0.1 mm 1 mps 698 mmHg 81%
    08:00 +25°C° 0.1 mm 1 mps 698 mmHg 74%
    09:00 +27°C° 0.1 mm 2 mps 699 mmHg 66%
    10:00 +28°C° 0.7 mm 2 mps 698 mmHg 65%
    11:00 +29°C° 0.7 mm 2 mps 698 mmHg 63%
    12:00 +30°C° 0.7 mm 3 mps 697 mmHg 61%
    13:00 +29°C° 1.6 mm 2 mps 697 mmHg 64%
    14:00 +28°C° 1.6 mm 2 mps 696 mmHg 67%
    15:00 +28°C° 1.6 mm 2 mps 696 mmHg 70%
    16:00 +26°C° 2.1 mm 2 mps 696 mmHg 75%
    17:00 +25°C° 2.1 mm 2 mps 695 mmHg 80%
    18:00 +24°C° 2.1 mm 2 mps 695 mmHg 85%
    19:00 +24°C° 1.2 mm 2 mps 695 mmHg 85%
    20:00 +23°C° 1.2 mm 1 mps 696 mmHg 86%
    21:00 +23°C° 1.2 mm 1 mps 696 mmHg 87%
    22:00 +23°C° 1.6 mm 1 mps 696 mmHg 87%
    23:00 +23°C° 1.6 mm 1 mps 696 mmHg 87%

    21 December, Thursday

    Time Temperature Precipitation Wind Pressure Humidity
    00:00 +23°C° 1.6 mm 1 mps 695 mmHg 86%
    01:00 +23°C° 0.9 mm 1 mps 695 mmHg 86%
    02:00 +22°C° 0.9 mm 1 mps 694 mmHg 86%
    03:00 +22°C° 0.9 mm 1 mps 694 mmHg 86%
    04:00 +22°C° 0.4 mm 1 mps 694 mmHg 86%
    05:00 +22°C° 0.4 mm 1 mps 694 mmHg 87%
    06:00 +22°C° 0.4 mm 1 mps 694 mmHg 87%
    07:00 +23°C° 0.5 mm 2 mps 695 mmHg 84%
    08:00 +24°C° 0.5 mm 2 mps 695 mmHg 82%
    09:00 +24°C° 0.5 mm 3 mps 695 mmHg 79%
    10:00 +25°C° 0.6 mm 3 mps 695 mmHg 77%
    11:00 +25°C° 0.6 mm 3 mps 695 mmHg 75%
    12:00 +26°C° 0.6 mm 4 mps 695 mmHg 73%
    13:00 +25°C° 0.6 mm 4 mps 695 mmHg 75%
    14:00 +25°C° 0.6 mm 3 mps 694 mmHg 78%
    15:00 +24°C° 0.6 mm 3 mps 694 mmHg 81%
    16:00 +24°C° 0.5 mm 3 mps 694 mmHg 82%
    17:00 +22°C° 0.5 mm 3 mps 694 mmHg 83%
    18:00 +22°C° 0.5 mm 3 mps 694 mmHg 83%
    19:00 +22°C° 1.8 mm 3 mps 694 mmHg 85%
    20:00 +21°C° 1.8 mm 3 mps 694 mmHg 88%
    21:00 +21°C° 1.8 mm 3 mps 695 mmHg 90%
    22:00 +21°C° 1.4 mm 3 mps 694 mmHg 90%
    23:00 +21°C° 1.4 mm 3 mps 694 mmHg 91%

    22 December, Friday

    Time Temperature Precipitation Wind Pressure Humidity
    00:00 +21°C° 1.4 mm 3 mps 694 mmHg 91%
    01:00 +21°C° 1.7 mm 3 mps 694 mmHg 91%
    02:00 +21°C° 1.7 mm 3 mps 693 mmHg 92%
    03:00 +21°C° 1.7 mm 3 mps 693 mmHg 92%
    04:00 +21°C° 1.4 mm 3 mps 693 mmHg 92%
    05:00 +21°C° 1.4 mm 3 mps 693 mmHg 92%
    06:00 +21°C° 1.4 mm 3 mps 694 mmHg 93%
    07:00 +21°C° 0.6 mm 3 mps 694 mmHg 92%
    08:00 +21°C° 0.6 mm 3 mps 694 mmHg 91%
    09:00 +21°C° 0.6 mm 3 mps 694 mmHg 90%
    10:00 +22°C° 0.5 mm 3 mps 694 mmHg 88%
    11:00 +24°C° 0.5 mm 3 mps 694 mmHg 86%
    12:00 +24°C° 0.5 mm 3 mps 694 mmHg 84%
    13:00 +25°C° 1.2 mm 3 mps 694 mmHg 82%
    14:00 +25°C° 1.2 mm 3 mps 693 mmHg 80%
    15:00 +26°C° 1.2 mm 3 mps 693 mmHg 78%
    16:00 +25°C° 2.4 mm 3 mps 693 mmHg 81%
    17:00 +24°C° 2.4 mm 2 mps 693 mmHg 85%
    18:00 +24°C° 2.4 mm 2 mps 693 mmHg 88%
    19:00 +23°C° 2.5 mm 2 mps 693 mmHg 89%
    20:00 +23°C° 2.5 mm 2 mps 693 mmHg 89%
    21:00 +23°C° 2.5 mm 2 mps 694 mmHg 90%
    22:00 +21°C° 1.3 mm 2 mps 694 mmHg 90%
    23:00 +21°C° 1.3 mm 2 mps 694 mmHg 91%
    Show more